Location: St. Louis
(38.6270°N, 90.1994°W)
Time: 07:06:29
(UTC-06:00)

Transit 2A Rocket - Pass Details

Date: 01 December 2021
Orbit: 584 x 917 km, 66.7° (Epoch: 23 January)

Event Time Altitude Azimuth Distance (km) Brightness Sun altitude
Rises 17:51:30 0° 325° (NW) 3,546 8.7 -13.8°
Reaches altitude 10° 17:54:11 10° 319° (NW) 2,580 8.0 -14.3°
Maximum altitude 17:59:49 43° 250° (WSW) 1,198 6.6 -15.3°
Drops below altitude 10° 18:05:04 10° 180° (S) 2,406 7.8 -16.3°
Sets 18:07:31 0° 173° (S) 3,283 8.4 -16.8°
